| time (UTC) | temp F | wind direction | speed knots | gust knots | rain 1hr in | rain 24hr in | rain mn in | humidity % | barometer mb |
| 20260509200701 | 57 | 317 | 1.7 | 2.6 | 0.00 | 0.00 | 0.00 | 78 | 1018.1 |
| 20260509200201 | 57 | 317 | 1.7 | 2.6 | 0.00 | 0.00 | 0.00 | 78 | 1018.0 |
| 20260509190702 | 57 | 289 | 0.9 | 1.7 | 0.00 | 0.00 | 0.00 | 78 | 1017.7 |
| 20260509190201 | 57 | 289 | 0.9 | 7.8 | 0.00 | 0.00 | 0.00 | 77 | 1017.7 |
| 20260509180700 | 57 | 235 | 3.5 | 6.1 | 0.00 | 0.00 | 0.00 | 78 | 1017.2 |
| 20260509170701 | 58 | 261 | 2.6 | 5.2 | 0.00 | 0.00 | 0.00 | 77 | 1016.7 |
| 20260509170202 | 58 | 276 | 1.7 | 7.0 | 0.00 | 0.00 | 0.00 | 77 | 1016.6 |
| 20260509160701 | 59 | 352 | 1.7 | 2.6 | 0.00 | 0.00 | 0.00 | 77 | 1015.3 |
| 20260509160201 | 59 | 317 | 2.6 | 7.8 | 0.00 | 0.00 | 0.00 | 76 | 1015.3 |
| 20260509150701 | 59 | 260 | 1.7 | 5.2 | 0.00 | 0.00 | 0.00 | 76 | 1015.0 |
| 20260509150201 | 60 | 241 | 2.6 | 7.8 | 0.00 | 0.00 | 0.00 | 76 | 1015.0 |
| 20260509140701 | 61 | 263 | 5.2 | 7.8 | 0.00 | 0.00 | 0.00 | 76 | 1014.7 |
| 20260509130701 | 61 | 262 | 6.1 | 8.7 | 0.00 | 0.00 | 0.00 | 75 | 1014.7 |
| 20260509130201 | 62 | 253 | 5.2 | 10.4 | 0.00 | 0.00 | 0.00 | 75 | 1014.7 |
| 20260509120701 | 61 | 259 | 7.8 | 11.3 | 0.00 | 0.00 | 0.00 | 76 | 1015.2 |
| 20260509110703 | 62 | 264 | 7.0 | 10.4 | 0.00 | 0.00 | 0.00 | 75 | 1015.6 |
| 20260509110201 | 62 | 264 | 7.8 | 12.2 | 0.00 | 0.00 | 0.00 | 75 | 1015.6 |
| 20260509100701 | 62 | 315 | 7.8 | 10.4 | 0.00 | 0.00 | 0.00 | 75 | 1015.8 |
| 20260509100201 | 62 | 312 | 6.1 | 10.4 | 0.00 | 0.00 | 0.00 | 75 | 1015.9 |
| 20260509090201 | 61 | 333 | 6.1 | 10.4 | 0.00 | 0.00 | 0.00 | 76 | 1016.8 |
| 20260509080701 | 57 | 24 | 2.6 | 6.1 | 0.00 | 0.00 | 0.00 | 81 | 1016.9 |
| 20260509080201 | 57 | 357 | 5.2 | 10.4 | 0.00 | 0.00 | 0.00 | 81 | 1017.0 |
| 20260509070201 | 56 | 0 | 5.2 | 8.7 | 0.00 | 0.00 | 0.00 | 83 | 1017.1 |
| 20260509060701 | 56 | 42 | 2.6 | 5.2 | 0.00 | 0.00 | 0.00 | 84 | 1016.7 |
| 20260509060202 | 56 | 6 | 1.7 | 6.1 | 0.00 | 0.00 | 0.00 | 84 | 1016.7 |
| 20260509050702 | 56 | 42 | 1.7 | 2.6 | 0.00 | 0.00 | 0.00 | 85 | 1016.4 |
| 20260509050201 | 55 | 39 | 1.7 | 5.2 | 0.00 | 0.00 | 0.00 | 85 | 1016.3 |
| 20260509040701 | 55 | 3 | 2.6 | 4.3 | 0.00 | 0.01 | 0.00 | 86 | 1016.0 |
| 20260509040202 | 55 | 29 | 1.7 | 7.0 | 0.00 | 0.01 | 0.00 | 86 | 1016.0 |
| 20260509030701 | 55 | 30 | 2.6 | 5.2 | 0.00 | 0.01 | 0.00 | 87 | 1015.7 |
| 20260509030202 | 55 | 13 | 4.3 | 8.7 | 0.00 | 0.01 | 0.00 | 87 | 1015.8 |
| 20260509020202 | 55 | 24 | 2.6 | 10.4 | 0.00 | 0.01 | 0.00 | 88 | 1015.5 |
| 20260509010703 | 54 | 356 | 4.3 | 7.8 | 0.00 | 0.01 | 0.00 | 88 | 1015.8 |
| 20260509010202 | 53 | 3 | 6.1 | 11.3 | 0.00 | 0.01 | 0.00 | 88 | 1015.8 |
| 20260509000702 | 54 | 14 | 2.6 | 8.7 | 0.00 | 0.01 | 0.00 | 88 | 1016.1 |
| 20260509000201 | 54 | 2 | 4.3 | 10.4 | 0.00 | 0.01 | 0.00 | 88 | 1016.0 |
| 20260508230701 | 54 | 346 | 3.5 | 6.1 | 0.00 | 0.01 | 0.00 | 88 | 1016.0 |
| 20260508230202 | 54 | 7 | 2.6 | 7.8 | 0.00 | 0.01 | 0.00 | 88 | 1016.0 |
| 20260508220702 | 54 | 11 | 2.6 | 4.3 | 0.00 | 0.01 | 0.00 | 88 | 1015.8 |
| 20260508220203 | 54 | 29 | 1.7 | 7.0 | 0.00 | 0.01 | 0.00 | 88 | 1015.8 |
| 20260508210701 | 54 | 26 | 2.6 | 5.2 | 0.00 | 0.01 | 0.01 | 88 | 1015.7 |
| 20260508210203 | 54 | 15 | 1.7 | 7.0 | 0.00 | 0.01 | 0.01 | 88 | 1015.7 |